EW5586 Weather Reports


Display with metric or nautical units.
time (UTC)temp
F
wind
direction
speed
MPH
gust
MPH
rain 1hr
in
rain 24hr
in
rain mn
in
humidity
%
barometer
mb
20260901201223 82 5 0.0 1.0 0.00 0.00 0.00 72 1013.9
20260901200716 81 0 0.0 1.0 0.00 0.00 0.00 74 1013.9
20260901200210 81 340 0.0 0.0 0.00 0.00 0.00 74 1013.8
20260901195704 81 346 0.0 0.0 0.00 0.00 0.00 74 1013.9
20260901195158 81 355 0.0 0.0 0.00 0.00 0.00 73 1014.0
20260901194652 81 10 0.0 0.0 0.00 0.00 0.00 75 1014.0
20260901194146 81 10 0.0 0.0 0.00 0.00 0.00 73 1014.3
20260901193640 81 350 0.0 2.0 0.00 0.00 0.00 72 1014.2
20260901193135 81 337 0.0 2.0 0.00 0.00 0.00 72 1014.1
20260901192629 82 355 0.0 3.0 0.00 0.00 0.00 71 1014.0
20260901192124 81 343 1.0 5.0 0.00 0.00 0.00 72 1014.1
20260901191625 81 11 0.0 5.0 0.00 0.00 0.00 73 1014.2
20260901191124 81 126 0.0 0.0 0.00 0.00 0.00 75 1014.1
20260901190625 81 126 0.0 0.0 0.00 0.00 0.00 73 1014.2
20260901190124 81 338 0.0 0.0 0.00 0.00 0.00 74 1014.1
20260901185625 80 339 0.0 0.0 0.00 0.00 0.00 74 1014.1
20260901185124 80 49 0.0 0.0 0.00 0.00 0.00 75 1014.1
20260901184624 80 342 0.0 0.0 0.00 0.00 0.00 74 1014.1
20260901184123 80 342 0.0 0.0 0.00 0.00 0.00 72 1014.2
20260901183622 81 268 0.0 0.0 0.00 0.00 0.00 71 1014.2
20260901183122 81 350 0.0 1.0 0.00 0.00 0.00 73 1014.3
20260901182623 81 355 0.0 1.0 0.00 0.00 0.00 71 1014.3
20260901181619 81 9 0.0 3.0 0.00 0.00 0.00 73 1014.2
20260901180618 81 355 0.0 1.0 0.00 0.00 0.00 75 1014.3
20260901180119 81 9 0.0 1.0 0.00 0.00 0.00 75 1014.3
20260901175617 80 341 0.0 1.0 0.00 0.00 0.00 75 1014.3
20260901175114 80 134 0.0 0.0 0.00 0.00 0.00 75 1014.3
20260901174112 79 325 0.0 4.0 0.00 0.00 0.00 78 1014.2
20260901173110 78 329 0.0 1.0 0.00 0.00 0.00 79 1014.3
20260901172612 78 340 0.0 1.0 0.00 0.00 0.00 81 1014.3
20260901172110 78 342 0.0 0.0 0.00 0.00 0.00 82 1014.3
20260901171608 78 355 0.0 0.0 0.00 0.00 0.00 80 1014.4
20260901171111 78 0 0.0 4.0 0.00 0.00 0.00 80 1014.5
20260901170606 77 5 0.0 4.0 0.00 0.00 0.00 82 1014.5
20260901170106 77 0 0.0 2.0 0.00 0.00 0.00 80 1014.6
20260901165103 77 10 0.0 1.0 0.00 0.00 0.00 81 1014.6
20260901164604 77 320 0.0 0.0 0.00 0.00 0.00 83 1014.6
20260901163602 76 231 0.0 0.0 0.00 0.00 0.00 84 1014.7
20260901162602 75 97 0.0 1.0 0.00 0.00 0.00 89 1014.7
20260901162102 74 346 0.0 0.0 0.00 0.00 0.00 89 1014.7
20260901161603 74 67 0.0 0.0 0.00 0.00 0.00 88 1014.8
20260901161103 74 5 0.0 0.0 0.00 0.00 0.00 88 1014.7
20260901155558 73 0 0.0 5.0 0.00 0.00 0.00 89 1014.8
20260901155057 73 355 0.0 1.0 0.00 0.00 0.00 89 1014.9
20260901154558 73 355 0.0 1.0 0.00 0.00 0.00 89 1014.9
20260901154058 73 36 0.0 4.0 0.00 0.00 0.00 91 1014.9
20260901153557 73 351 0.0 4.0 0.00 0.00 0.00 91 1014.9
20260901153058 73 293 0.0 3.0 0.00 0.00 0.00 94 1015.0
20260901152559 73 15 0.0 3.0 0.00 0.00 0.00 94 1015.0
20260901151558 72 66 0.0 0.0 0.00 0.00 0.00 97 1015.0
20260901151054 71 17 0.0 5.0 0.00 0.00 0.00 97 1015.0
20260901150553 70 0 0.0 5.0 0.00 0.00 0.00 97 1015.2
20260901150054 70 15 0.0 2.0 0.00 0.00 0.00 97 1015.3
20260901145054 69 19 0.0 6.0 0.00 0.00 0.00 97 1015.3
20260901144554 69 351 0.0 1.0 0.00 0.00 0.00 97 1015.2
20260901144054 68 0 0.0 1.0 0.00 0.00 0.00 97 1015.2
20260901143554 68 16 0.0 5.0 0.00 0.00 0.00 97 1015.2
20260901143054 68 351 0.0 5.0 0.00 0.00 0.00 97 1015.2
20260901142554 68 355 0.0 3.0 0.00 0.00 0.00 98 1015.1
20260901141553 67 33 0.0 2.0 0.00 0.00 0.00 98 1015.1
20260901141052 66 355 0.0 1.0 0.00 0.00 0.00 98 1015.2
20260901140552 66 27 0.0 6.0 0.00 0.00 0.00 97 1015.1
20260901140050 65 5 0.0 6.0 0.00 0.00 0.00 97 1015.1
20260901134048 65 19 0.0 4.0 0.00 0.00 0.00 97 1015.2
20260901133549 65 40 0.0 0.0 0.00 0.00 0.00 97 1015.3
20260901133045 65 355 0.0 0.0 0.00 0.00 0.00 97 1015.3
20260901132544 64 355 0.0 2.0 0.00 0.00 0.00 97 1015.3
20260901132043 64 13 0.0 3.0 0.00 0.00 0.00 97 1015.2
20260901131537 65 21 0.0 3.0 0.00 0.00 0.00 97 1015.1
20260901131031 65 355 0.0 3.0 0.00 0.00 0.00 97 1015.1
20260901130022 65 342 0.0 0.0 0.00 0.00 0.00 97 1014.9
20260901125007 65 24 0.0 0.0 0.00 0.00 0.00 97 1014.6
20260901123955 65 348 0.0 0.0 0.00 0.00 0.00 97 1013.7
20260901123449 65 292 0.0 2.0 0.00 0.00 0.00 97 1013.2
20260901122943 65 252 0.0 4.0 0.00 0.00 0.00 97 1012.9
20260901122439 65 229 0.0 4.0 0.00 0.00 0.00 97 1012.8
20260901121931 65 221 0.0 5.0 0.00 0.00 0.00 97 1013.5
20260901121428 65 179 1.0 5.0 0.00 0.00 0.00 97 1013.3
20260901120927 65 221 1.0 5.0 0.00 0.00 0.00 97 1013.8
20260901120428 65 199 1.0 5.0 0.00 0.00 0.00 97 1013.9
20260901115927 65 0 0.0 1.0 0.00 0.00 0.00 97 1014.0
20260901115434 65 345 0.0 0.0 0.00 0.00 0.00 97 1014.5
20260901114930 65 355 0.0 0.0 0.00 0.00 0.00 97 1015.1
20260901114427 65 355 0.0 0.0 0.00 0.00 0.00 97 1015.2
20260901113926 65 11 0.0 0.0 0.00 0.00 0.00 96 1015.4
20260901113426 0 0.0 0.0 0.00 0.00 0.00 1015.0
20260901112913 0 0.0 0.0 0.00 0.00 0.00 1014.8
20260901112328 0 0.0 0.0 0.00 0.00 0.00 1014.8
20260901111820 0 0.0 0.0 0.00 0.00 0.00 1014.9
20260901111228 0 0.0 0.0 0.00 0.00 0.00 1015.0
20260901110722 0 0.0 0.0 0.00 0.00 0.00 1014.8
20260901110216 0 0.0 0.0 0.00 0.00 0.00 1014.8
20260901105710 0 0.0 0.0 0.00 0.00 0.00 1014.7
20260901104626 0 0.0 0.0 0.00 0.00 0.00 1014.9
20260901104119 0 0.0 0.0 0.00 0.00 0.00 1014.8
20260901103523 0 0.0 0.0 0.00 0.00 0.00 1014.6
20260901103022 0 0.0 0.0 0.00 0.00 0.00 1015.3
20260901102520 0 0.0 0.0 0.00 0.00 0.00 1015.5
20260901101926 0 0.0 0.0 0.00 0.00 0.00 1015.0
20260901101329 0 0.0 0.0 0.00 0.00 0.00 1015.0
20260901100821 0 0.0 0.0 0.00 0.00 0.00 1015.1
20260901100319 0 0.0 0.0 0.00 0.00 0.00 1015.2
20260901095818 0 0.0 0.0 0.00 0.00 0.00 1015.2
20260901095220 0 0.0 0.0 0.00 0.00 0.00 1015.3
20260901094717 0 0.0 0.0 0.00 0.00 0.00 1015.4
20260901094122 0 0.0 0.0 0.00 0.00 0.00 1015.2
20260901093619 0 0.0 0.0 0.00 0.00 0.00 1015.1
20260901093019 0 0.0 0.0 0.00 0.00 0.00 1015.1
20260901091923 0 0.0 0.0 0.00 0.00 0.00 1015.5
20260901091417 0 0.0 0.0 0.00 0.00 0.00 1015.3
20260901090825 0 0.0 0.0 0.00 0.00 0.00 1015.2
20260901090326 0 0.0 0.0 0.00 0.00 0.00 1015.3
20260901085225 0 0.0 0.0 0.00 0.00 0.00 1015.2
20260901084725 0 0.0 0.0 0.00 0.00 0.00 1015.2
20260901084221 0 0.0 0.0 0.00 0.00 0.00 1015.0
20260901083624 0 0.0 0.0 0.00 0.00 0.00 1014.9
20260901083121 0 0.0 0.0 0.00 0.00 0.00 1014.9
20260901082022 0 0.0 0.0 0.00 0.00 0.00 1014.8
20260901081425 0 0.0 0.0 0.00 0.00 0.00 1014.8
20260901080923 0 0.0 0.0 0.00 0.00 0.00 1015.1
20260901080417 0 0.0 0.0 0.00 0.00 0.00 1015.5
20260901075829 0 0.0 0.0 0.00 0.00 0.00 1015.5
20260901075326 0 0.0 0.0 0.00 0.00 0.00 1015.5
20260901073730 66 190 0.0 4.0 0.00 0.00 0.00 95 1015.1
20260901073229 66 190 0.0 4.0 0.00 0.00 0.00 95 1015.2
20260901072723 66 190 0.0 0.0 0.00 0.00 0.00 95 1015.1
20260901071206 66 190 0.0 0.0 0.00 0.00 0.00 95 1015.3
20260901070659 66 190 0.0 0.0 0.00 0.00 0.00 95 1015.4
20260901070153 66 190 1.0 4.0 0.00 0.00 0.00 95 1015.3
20260901065647 66 190 1.0 4.0 0.00 0.00 0.00 95 1015.3
20260901064136 66 273 0.0 0.0 0.00 0.00 0.00 95 1015.4
20260901063633 66 273 0.0 0.0 0.00 0.00 0.00 95 1015.4
20260901063131 66 273 0.0 0.0 0.00 0.00 0.00 95 1015.4
20260901062629 66 273 0.0 0.0 0.00 0.00 0.00 95 1015.5
20260901062129 66 273 0.0 0.0 0.00 0.00 0.00 95 1015.5
20260901061629 66 273 0.0 0.0 0.00 0.00 0.00 94 1015.5
20260901061129 66 273 0.0 0.0 0.00 0.00 0.00 94 1015.6
20260901060627 66 273 0.0 0.0 0.00 0.00 0.00 94 1015.8
20260901055625 66 273 0.0 0.0 0.00 0.00 0.00 94 1015.7
20260901055125 66 273 0.0 0.0 0.00 0.00 0.00 94 1015.7
20260901054625 66 273 0.0 0.0 0.00 0.00 0.00 94 1015.9
20260901054125 66 273 0.0 0.0 0.00 0.00 0.00 94 1016.0
20260901053625 66 273 0.0 0.0 0.00 0.00 0.00 94 1016.2
20260901053125 67 273 0.0 0.0 0.00 0.00 0.00 93 1016.1
20260901052626 67 273 0.0 0.0 0.00 0.00 0.00 93 1016.2
20260901052121 67 273 0.0 0.0 0.00 0.00 0.00 93 1016.2
20260901051119 67 211 0.0 0.0 0.00 0.00 0.00 93 1016.1
20260901050119 67 211 0.0 2.0 0.00 0.00 0.00 93 1015.9
20260901045619 67 211 1.0 5.0 0.00 0.00 0.00 93 1016.0
20260901045120 67 196 1.0 5.0 0.00 0.00 0.00 93 1015.9
20260901044619 67 173 0.0 5.0 0.00 0.00 0.00 93 1015.8
20260901044119 68 165 0.0 0.0 0.00 0.00 0.00 93 1015.8
20260901043620 68 162 0.0 0.0 0.00 0.00 0.00 93 1015.8
20260901043118 68 161 0.0 0.0 0.00 0.00 0.00 93 1015.6
20260901042616 68 161 0.0 0.0 0.00 0.00 0.00 93 1015.7
20260901042115 68 161 0.0 0.0 0.00 0.00 0.00 94 1015.7
20260901041111 68 155 0.0 0.0 0.00 0.00 0.00 94 1015.9
20260901040611 67 155 0.0 0.0 0.00 0.00 0.00 94 1015.9
20260901040111 67 155 0.0 0.0 0.00 0.00 0.00 94 1016.0
20260901035611 67 155 0.0 0.0 0.00 0.00 0.00 94 1016.1
20260901034611 67 155 0.0 0.0 0.00 0.00 0.00 94 1016.2
20260901033611 67 155 0.0 0.0 0.00 0.00 0.00 94 1016.1
20260901033107 67 155 0.0 0.0 0.00 0.00 0.00 93 1016.1
20260901032607 67 155 0.0 0.0 0.00 0.00 0.00 94 1016.2
20260901031607 67 155 0.0 5.0 0.00 0.00 0.00 94 1016.2
20260901031106 67 155 0.0 5.0 0.00 0.00 0.00 94 1016.2
20260901030608 67 169 0.0 0.0 0.00 0.00 0.00 94 1016.3
20260901030108 67 265 0.0 0.0 0.00 0.00 0.00 93 1016.5
20260901025607 67 265 0.0 0.0 0.00 0.00 0.00 93 1016.4
20260901025107 67 265 0.0 0.0 0.00 0.00 0.00 93 1016.4
20260901024603 67 264 0.0 0.0 0.00 0.00 0.00 93 1016.3
20260901024103 68 264 0.0 0.0 0.00 0.00 0.00 93 1016.3
20260901023103 68 265 0.0 0.0 0.00 0.00 0.00 93 1016.5
20260901022603 68 265 0.0 0.0 0.00 0.00 0.00 92 1016.7
20260901022104 68 228 0.0 0.0 0.00 0.00 0.00 92 1016.6
20260901021603 68 224 0.0 0.0 0.00 0.00 0.00 93 1016.6
20260901021103 68 224 0.0 0.0 0.00 0.00 0.00 93 1016.5
20260901020603 68 342 0.0 0.0 0.00 0.00 0.00 92 1016.3
20260901020104 68 344 0.0 0.0 0.00 0.00 0.00 92 1016.3
20260901015603 68 344 0.0 0.0 0.00 0.00 0.00 92 1016.5
20260901014601 69 324 0.0 0.0 0.00 0.00 0.00 92 1016.6
20260901014100 69 208 0.0 0.0 0.00 0.00 0.00 92 1016.5
20260901013559 69 208 0.0 0.0 0.00 0.00 0.00 92 1016.5
20260901013059 69 208 0.0 1.0 0.00 0.00 0.00 93 1016.4
20260901012556 69 202 0.0 1.0 0.00 0.00 0.00 93 1016.4
20260901012057 69 324 0.0 0.0 0.00 0.00 0.00 92 1016.6
20260901011555 69 324 0.0 0.0 0.00 0.00 0.00 92 1016.6
20260901010554 69 312 0.0 0.0 0.00 0.00 0.00 92 1016.4
20260901010055 69 307 0.0 0.0 0.00 0.00 0.00 92 1016.5
20260901005553 69 307 0.0 0.0 0.00 0.00 0.00 92 1016.6
20260901005053 69 307 0.0 0.0 0.00 0.00 0.00 92 1016.8
20260901004549 69 306 0.0 0.0 0.00 0.00 0.00 92 1016.8
20260901004049 69 307 0.0 0.0 0.00 0.00 0.00 92 1016.9
20260901003549 69 307 0.0 0.0 0.00 0.00 0.00 91 1016.7
20260901003051 69 307 0.0 0.0 0.00 0.00 0.00 91 1016.4
20260901002549 69 306 0.0 0.0 0.00 0.00 0.00 91 1016.4
20260901002049 69 307 0.0 0.0 0.00 0.00 0.00 91 1016.4
20260901001549 69 307 0.0 0.0 0.00 0.00 0.00 91 1016.4
20260901000549 69 307 0.0 0.0 0.00 0.00 0.00 91 1016.5
20260901000045 69 306 0.0 0.0 0.00 0.00 0.00 91 1016.5
20260831235045 69 307 0.0 0.0 0.00 0.00 0.00 90 1016.5
20260831234545 69 307 0.0 0.0 0.00 0.00 0.00 90 1016.5
20260831234046 69 307 0.0 0.0 0.00 0.00 0.00 90 1016.5
20260831233545 69 307 0.0 0.0 0.00 0.00 0.00 89 1016.5
20260831233045 70 306 0.0 0.0 0.00 0.00 0.00 89 1016.5
20260831232545 70 303 0.0 0.0 0.00 0.00 0.00 89 1016.5
20260831232048 70 303 0.0 0.0 0.00 0.00 0.00 89 1016.6
20260831231541 70 303 0.0 0.0 0.00 0.00 0.00 89 1016.7
20260831231042 70 303 0.0 0.0 0.00 0.00 0.00 89 1016.8
20260831230537 70 303 0.0 0.0 0.00 0.00 0.00 89 1016.9
20260831230040 70 303 0.0 0.0 0.00 0.00 0.00 88 1016.9
20260831225537 70 303 0.0 0.0 0.00 0.00 0.00 89 1016.9
20260831224535 71 302 0.0 0.0 0.00 0.00 0.00 88 1016.9
20260831224035 71 302 0.0 0.0 0.00 0.00 0.00 88 1016.9
20260831223535 71 302 0.0 0.0 0.00 0.00 0.00 88 1016.8
20260831223032 71 302 0.0 0.0 0.00 0.00 0.00 88 1016.8
20260831222030 71 302 0.0 0.0 0.00 0.00 0.00 87 1016.8
20260831221529 71 302 0.0 0.0 0.00 0.00 0.00 87 1016.8
20260831221030 71 302 0.0 0.0 0.00 0.00 0.00 87 1016.8
20260831220528 71 302 0.0 0.0 0.00 0.00 0.00 87 1017.0
20260831220029 71 302 0.0 0.0 0.00 0.00 0.00 87 1017.0
20260831215520 71 302 0.0 0.0 0.00 0.00 0.00 87 1017.0
20260831215014 71 302 0.0 0.0 0.00 0.00 0.00 87 1017.0
20260831214508 71 302 0.0 0.0 0.00 0.00 0.00 87 1017.0
20260831214002 71 302 0.0 0.0 0.00 0.00 0.00 87 1017.0
20260831213456 71 302 0.0 0.0 0.00 0.00 0.00 87 1017.0
20260831212950 71 302 0.0 0.0 0.00 0.00 0.00 86 1017.0
20260831212444 71 302 0.0 0.0 0.00 0.00 0.00 86 1017.0
20260831211938 71 302 0.0 0.0 0.00 0.00 0.00 86 1017.1
20260831211432 71 302 0.0 0.0 0.00 0.00 0.00 86 1017.1
20260831210926 71 302 0.0 0.0 0.00 0.00 0.00 86 1017.2
20260831210420 71 302 0.0 0.0 0.00 0.00 0.00 86 1017.3
20260831205915 71 302 0.0 0.0 0.00 0.00 0.00 86 1017.3
20260831205408 71 302 0.0 0.0 0.00 0.00 0.00 86 1017.4
20260831204903 71 302 0.0 0.0 0.00 0.00 0.00 87 1017.4
20260831204356 71 302 0.0 0.0 0.00 0.00 0.00 87 1017.4
20260831203856 71 302 0.0 0.0 0.00 0.00 0.00 87 1017.5
20260831203355 71 302 0.0 0.0 0.00 0.00 0.00 88 1017.4
20260831202853 71 302 0.0 0.0 0.00 0.00 0.00 88 1017.5
20260831202351 71 302 0.0 0.0 0.00 0.00 0.00 88 1017.4